Weather History for KDDH - November, 2011

Change the Weather History Date:

Thursday, November 17, 2011

  Actual Average Record
Temperature  
Mean Temperature 39 °F 38 °F  
Max Temperature 46 °F 47 °F 68 °F (2006)
Min Temperature 32 °F 30 °F 18 °F (2012)
Degree Days  
Heating Degree Days 26 27  
Month to date heating degree days 415  
Since 1 July heating degree days 1236  
Cooling Degree Days 0 0  
Month to date cooling degree days 0  
Year to date cooling degree days 313  
Moisture  
Dew Point 30 °F    
Average Humidity 70    
Maximum Humidity 89    
Minimum Humidity 59    
Precipitation  
Precipitation 0.00 in 0.10 in 0.91 in (2002)
Month to date precipitation 1.75  
Year to date precipitation 36.55  
Sea Level Pressure  
Sea Level Pressure 29.86 in    
Wind  
Wind Speed 6 mph (West)    
Max Wind Speed 13 mph    
Max Gust Speed 21 mph    
Visibility 10 miles    
Events Rain , Snow    
T = Trace of Precipitation, MM = Missing Value Source: NWS Daily Summary

Daily Weather History Graph

Daily Weather History Graph

Search for Another Location

Airport or City:

Trip Planner

Search our weather history database for the weather conditions in past years. The results will help you decide how hot, cold, wet, or windy it might be!

Date:

Astronomy

Nov. 17, 2011 Rise Set
Actual Time 6:47 AM EST 4:28 PM EST
Civil Twilight 6:16 AM EST 4:58 PM EST
Nautical Twilight 5:42 AM EST 5:33 PM EST
Astronomical Twilight 5:08 AM EST 6:06 PM EST
Moon 10:48 PM EST (11/17) 11:52 AM EST (11/17)
Length of Visible Light 10h 42m
Length of Day
9h 40m
Waning Gibbous, 60% of the Moon is Illuminated
Nov 17
Waning Gibbous
Nov 18
Last Quarter
Nov 25
New
Dec 2
First Quarter
Dec 10
Full

Hourly Weather History & Observations

Time (EST) Temp. Windchill Dew Point Humidity Pressure Visibility Wind Dir Wind Speed Gust Speed Precip Events Conditions
12:54 AM 46.0 °F 43.1 °F 43.0 °F 89% 29.78 in 8.0 mi Variable 5.8 mph - N/A   Mostly Cloudy
1:54 AM 45.0 °F 42.6 °F 41.0 °F 86% 29.80 in 8.0 mi Variable 4.6 mph - N/A   Scattered Clouds
2:54 AM 43.0 °F 41.3 °F 37.9 °F 82% 29.80 in 10.0 mi West 3.5 mph - N/A   Clear
3:54 AM 42.1 °F 39.2 °F 34.0 °F 73% 29.83 in 10.0 mi Variable 4.6 mph - N/A   Mostly Cloudy
4:54 AM 39.9 °F 35.8 °F 30.9 °F 70% 29.84 in 10.0 mi West 5.8 mph - N/A   Clear
5:54 AM 39.0 °F 32.8 °F 28.9 °F 67% 29.86 in 10.0 mi West 9.2 mph - N/A   Scattered Clouds
6:54 AM 37.9 °F 32.1 °F 28.0 °F 68% 29.87 in 10.0 mi West 8.1 mph - N/A   Clear
7:54 AM 37.9 °F 35.5 °F 30.0 °F 73% 29.89 in 10.0 mi West 3.5 mph - N/A   Clear
8:54 AM 39.0 °F 34.8 °F 30.0 °F 70% 29.87 in 10.0 mi WNW 5.8 mph - N/A   Clear
9:54 AM 39.9 °F 35.8 °F 30.9 °F 70% 29.88 in 10.0 mi WNW 5.8 mph - N/A   Clear
10:54 AM 41.0 °F 37.1 °F 30.9 °F 67% 29.89 in 10.0 mi West 5.8 mph - N/A   Clear
11:54 AM 41.0 °F 37.1 °F 30.0 °F 65% 29.84 in 10.0 mi West 5.8 mph - N/A   Scattered Clouds
12:54 PM 41.0 °F 37.1 °F 30.0 °F 65% 29.83 in 10.0 mi West 5.8 mph - N/A   Overcast
1:54 PM 41.0 °F 35.8 °F 28.9 °F 62% 29.81 in 10.0 mi West 8.1 mph - N/A   Overcast
3:54 PM 39.9 °F 35.8 °F 28.9 °F 65% 29.80 in 10.0 mi West 5.8 mph - N/A   Overcast
4:54 PM 39.0 °F 32.8 °F 28.0 °F 65% 29.81 in 10.0 mi West 9.2 mph - N/A   Overcast
5:54 PM 37.9 °F 30.0 °F 27.0 °F 65% 29.83 in 10.0 mi West 12.7 mph 20.7 mph 0.00 in Rain Light Rain
6:54 PM 37.0 °F 29.3 °F 26.1 °F 65% 29.87 in 10.0 mi WNW 11.5 mph 18.4 mph 0.00 in   Overcast
7:54 PM 36.0 °F 29.6 °F 25.0 °F 64% 29.88 in 10.0 mi West 8.1 mph 16.1 mph N/A   Mostly Cloudy
8:54 PM 35.1 °F 28.6 °F 21.9 °F 59% 29.91 in 10.0 mi West 8.1 mph - N/A   Clear
9:54 PM 33.1 °F 26.9 °F 23.0 °F 66% 29.92 in 10.0 mi WSW 6.9 mph - N/A   Clear
10:54 PM 32.0 °F 27.5 °F 24.1 °F 73% 29.93 in 10.0 mi WSW 4.6 mph - N/A   Mostly Cloudy
11:54 PM 33.1 °F 26.9 °F 26.1 °F 75% 29.96 in 4.0 mi West 6.9 mph 17.3 mph 0.00 in Snow Light Snow